Location: Yecla
(38.6122°N, 1.1101°W)
Time: 14:12:20
(UTC+02:00)

ISS - Pass Details

Date: 21 May 2019
Orbit: 407 x 418 km, 51.6° (Epoch: 20 June)

Event Time Altitude Azimuth Distance (km) Brightness Sun altitude
Rises 00:12:14 0° 291° (WNW) 2,352 0.8 -26.0°
Reaches altitude 10° 00:15:40 10° 329° (NNW) 1,495 0.1 -26.3°
Maximum altitude 00:16:43 11° 347° (NNW) 1,429 -0.2 -26.4°
Drops below altitude 10° 00:17:47 10° 6° (N) 1,498 -0.3 -26.5°
Enters shadow 00:24:33 -9° 58° (ENE) 3,542 1.1 -27.1°
